Regional Weather Roundup
Issued by NWS

Home | Current Version | Previous Version | Text Only | Print | Product List | Glossary On
Versions: 1 2 3 4 5 6 7 8 9 10 11 12 13 14 15 16 17 18 19 20 21 22 23 24 25 26 27 28 29 30 31 32 33 34 35 36 37 38 39 40 41 42 43 44 45 46 47 48 49 50
000
ASUS43 KLSX 232307
RWRMO

WEATHER SUMMARY FOR MISSOURI
NATIONAL WEATHER SERVICE SPRINGFIELD MO
500 PM CST THU NOV 23 2017

NOTE: "FAIR" INDICATES FEW OR NO CLOUDS BELOW 12,000 FEET WITH NO
       SIGNIFICANT WEATHER AND/OR OBSTRUCTIONS TO VISIBILITY.
       CURRENT SKY AND/OR WEATHER CONDITIONS ARE NOT AVAILABLE FOR
       CHILLICOTHE AND FARMINGTON.

MOZ001>031-035>038-043-044-053-054-240000-
...NORTHERN AND WESTERN MISSOURI...

CITY           SKY/WX    TMP DP  RH WIND       PRES   REMARKS
KANSAS CTY INT PTCLDY    56  36  47 S6        29.94F
KANSAS C DTWN  CLEAR     58  36  43 CALM      29.94F
LEE`S SUMMIT   CLEAR     58  36  43 S6        29.95F
ST JOSEPH      CLEAR     56  37  49 S7        29.92F
CHILLICOTHE      N/A     53  37  54 CALM      29.94F
KIRKSVILLE     CLEAR     53  34  48 SW3       29.93F

$$
MOZ066>068-077>081-088>096-101>105-240000-
...SOUTHWEST MISSOURI...

CITY           SKY/WX    TMP DP  RH WIND       PRES   REMARKS
SPRINGFIELD    CLEAR     58  31  35 W5        29.99S
JOPLIN         CLEAR     57  32  38 SW7       29.99F
BRANSON        CLEAR     59  28  31 SW7       30.01S

$$
MOZ032>034-039>042-045>050-055>058-069>072-240000-
...CENTRAL MISSOURI...

CITY           SKY/WX    TMP DP  RH WIND       PRES   REMARKS
COLUMBIA       CLEAR     54  32  43 W6        29.96S
JEFFERSON CITY CLEAR     56  33  42 NW5       29.96S
ROLLA          CLEAR     54  30  40 W6        29.96R
SEDALIA        CLEAR     55  36  48 SW6       29.97F
WHITEMAN AFB   CLEAR     53  34  49 SW5       29.92F
WARRENSBURG    CLEAR     55  34  44 S5        29.95S
OSAGE BEACH    CLEAR     59  32  36 W5        29.97S

$$
MOZ051-052-059>065-240000-
...EAST CENTRAL MISSOURI...

CITY           SKY/WX    TMP DP  RH WIND       PRES   REMARKS
ST LOUIS INTL  PTCLDY    53  28  38 NW5       29.96R
SPIRIT OF STL  CLEAR     47  32  56 CALM      29.95R
ST CHARLES     CLEAR     52  27  38 NW3       29.95R

$$
MOZ072>076-082>087-097>100-106>115-240000-
...SOUTH CENTRAL AND SOUTHEAST MISSOURI...

CITY           SKY/WX    TMP DP  RH WIND       PRES   REMARKS
CAPE GIRARDEAU CLEAR     46  28  49 S9        30.01F
FARMINGTON     CLEAR     50  26  39 S8        29.96S
POPLAR BLUFF   CLEAR     46  30  53 SW6       30.01F
WEST PLAINS    CLEAR     55  27  34 S5        29.99S

$$



USA.gov is the U.S. government's official web portal to all federal, state and local government web resources and services.